Showing default

QIANFAN-69, 62799

Orbit data source: Space-Track

QIANFAN-69, 62799 is a Chinese payload satellite in LEO that was launched on Thu, 23 Jan 2025 UTC via a CHANG ZHENG 6A launch vehicle from the Taiyaun Space Center, China (TSC). Payload-class satellites include a variety of spacecraft equipped with specific instruments for various scientific and technological missions. These include communications satellites like Starlink; space stations such as the ISS; scientific satellites like the Hubble; Earth observation satellites from companies like Planet Labs, Umbra, and HawkEye 360; GPS; miniature CubeSats for education and research; and military/defense satellites.

Loading next visibility...
Identifier
62799, 2025-016Q
Orbit
LEO
Country
Flag of CNCN / PRC
Related business
Manufacturer
SECM
Mission
Operational Commercial Communications
Bus & Motor
QIANFAN, Unknown motor
Mass
267 kg wet, ~267 kg dry
Launch date (UTC)
2025-01-23 (11 months ago)
Launch vehicle
CHANG ZHENG 6A
Launch site
Taiyaun Space Center, China (TSC)
Object type
Payload
Rocket body
Debris
Shape & HBR
Box + 1 Pan, 1.3 m
Radar Cross Section
13.200 m², Large (>1 m²)

Expand to show TLE details & history
Last TLE update: 9 hours ago

TLE from 9 hours ago
0 QIANFAN-69
1 62799U 25016Q   25352.54872720  .00000141  00000-0  19960-3 0  9993
2 62799  88.9758 102.3688 0014547 332.7451  27.2936 13.50988097 48061
Epoch: 2025-12-18T13:10Z
TLE epoch observation values (Epoch: 2025-12-18T13:10:10.030Z)
Latitude
0.00008°
Longitude
177.42436°
Altitude
1,061.953 km
Speed
7.326 km/s
True Right ascension
06h 49m 28s
True Declination
0° 00' 00"
Sunlit
Object was in full shadow at epoch
Visualization orbit readout
Latitude
Unknown
Longitude
Unknown
Altitude
Unknown
Speed
Unknown
Apparent Right ascension
Unknown
Apparent Declination
Unknown
Sunlit
N/A
Visualization observer readout
Local Sidereal Time
21:01:27
Azimuth
Unknown
Elevation
Unknown
Doppler factor
Unknown
Orbital elements
Apogee altitude
1,076.505 km
Perigee altitude
1,054.848 km
Semi-major axis
7,443.814 km
Eccentricity
0.00145
Inclination
88.9758°
RAAN
102.3688°
Arg. of periapsis
332.7451°
True anomaly
27.37016°
Mean anomaly
27.2936°
Eccentric anomaly
27.33187°
Mean motion
3.37948 °/min
Orbital period
106.53 mins
BSTAR
0.0001996
Loading maneuver chart data...
Computing Atmospheric mass density...
Loading historical data...
Loading historical data...
Loading historical data...
Loading historical data...
Loading historical data...
Loading historical data...
Loading historical data...

Documentation

Showing up to 5 results
|